Time,TemperatureF,DewpointF,PressureIn,WindDirection,WindDirectionDegrees,WindSpeedMPH,WindSpeedGustMPH,Humidity,HourlyPrecipIn,Conditions,Clouds,dailyrainin,SoftwareType,DateUTC
2013-09-26 00:01:00,50.7,49.0,29.95,South,178,0.0,0.0,94,0.00,,,0.00,VWS V14.01,2013-09-26 04:01:00,
2013-09-26 00:06:00,50.5,48.8,29.95,South,178,0.0,0.0,94,0.00,,,0.00,VWS V14.01,2013-09-26 04:06:00,
2013-09-26 00:11:00,50.4,48.7,29.95,South,178,0.0,0.0,94,0.00,,,0.00,VWS V14.01,2013-09-26 04:11:00,
2013-09-26 00:16:00,50.2,48.5,29.95,South,178,0.0,0.0,94,0.00,,,0.00,VWS V14.01,2013-09-26 04:16:00,
2013-09-26 00:21:00,50.1,48.4,29.95,South,178,0.0,0.0,94,0.00,,,0.00,VWS V14.01,2013-09-26 04:21:00,
2013-09-26 00:26:00,49.9,48.2,29.96,South,178,0.0,0.0,94,0.00,,,0.00,VWS V14.01,2013-09-26 04:26:00,
2013-09-26 00:31:00,49.8,48.2,29.96,South,178,0.0,0.0,94,0.00,,,0.00,VWS V14.01,2013-09-26 04:31:00,
2013-09-26 00:36:00,49.7,48.0,29.96,South,178,0.0,0.0,94,0.00,,,0.00,VWS V14.01,2013-09-26 04:36:00,
2013-09-26 00:41:00,49.6,48.0,29.95,South,178,0.0,0.0,94,0.00,,,0.00,VWS V14.01,2013-09-26 04:41:00,
2013-09-26 00:46:00,49.4,48.0,29.96,South,178,0.0,0.0,95,0.00,,,0.00,VWS V14.01,2013-09-26 04:46:00,
2013-09-26 00:51:00,49.4,48.0,29.96,South,179,0.0,0.0,95,0.00,,,0.00,VWS V14.01,2013-09-26 04:51:00,
2013-09-26 00:56:00,49.3,47.9,29.96,South,178,0.0,0.0,95,0.00,,,0.00,VWS V14.01,2013-09-26 04:56:00,
2013-09-26 01:01:00,49.1,47.7,29.96,South,178,0.0,0.0,95,0.00,,,0.00,VWS V14.01,2013-09-26 05:01:00,
2013-09-26 01:06:00,48.9,47.5,29.96,South,179,0.0,0.0,95,0.00,,,0.00,VWS V14.01,2013-09-26 05:06:00,
2013-09-26 01:11:00,48.8,47.4,29.96,South,178,0.0,0.0,95,0.00,,,0.00,VWS V14.01,2013-09-26 05:11:00,
2013-09-26 01:16:00,48.7,47.3,29.96,South,178,0.0,0.0,95,0.00,,,0.00,VWS V14.01,2013-09-26 05:16:00,
2013-09-26 01:21:00,48.6,47.2,29.96,South,178,0.0,0.0,95,0.00,,,0.00,VWS V14.01,2013-09-26 05:21:00,
2013-09-26 01:26:00,48.4,47.0,29.96,South,178,0.0,0.0,95,0.00,,,0.00,VWS V14.01,2013-09-26 05:26:00,
2013-09-26 01:31:00,48.3,46.9,29.96,South,179,0.0,0.0,95,0.00,,,0.00,VWS V14.01,2013-09-26 05:31:00,
2013-09-26 01:36:00,48.1,46.7,29.96,South,178,0.0,0.0,95,0.00,,,0.00,VWS V14.01,2013-09-26 05:36:00,
2013-09-26 01:41:00,48.0,46.6,29.96,South,178,0.0,0.0,95,0.00,,,0.00,VWS V14.01,2013-09-26 05:41:00,
2013-09-26 01:46:00,47.9,46.5,29.96,South,178,0.0,0.0,95,0.00,,,0.00,VWS V14.01,2013-09-26 05:46:00,
2013-09-26 01:51:00,47.8,46.4,29.96,South,178,0.0,0.0,95,0.00,,,0.00,VWS V14.01,2013-09-26 05:51:00,
2013-09-26 01:56:00,47.8,46.4,29.97,South,179,0.0,0.0,95,0.00,,,0.00,VWS V14.01,2013-09-26 05:56:00,
2013-09-26 02:01:00,47.7,46.3,29.97,South,178,0.0,0.0,95,0.00,,,0.00,VWS V14.01,2013-09-26 06:01:00,
2013-09-26 02:06:00,47.6,46.2,29.97,South,178,0.0,0.0,95,0.00,,,0.00,VWS V14.01,2013-09-26 06:06:00,
2013-09-26 02:10:00,47.7,46.6,29.97,South,178,0.0,0.0,96,0.00,,,0.00,VWS V14.01,2013-09-26 06:10:00,
2013-09-26 02:15:00,47.7,46.6,29.97,South,178,0.0,0.0,96,0.00,,,0.00,VWS V14.01,2013-09-26 06:15:00,
2013-09-26 02:20:00,47.7,46.3,29.97,South,178,0.0,0.0,95,0.00,,,0.00,VWS V14.01,2013-09-26 06:20:00,
2013-09-26 02:25:00,47.5,46.1,29.97,South,178,0.0,0.0,95,0.00,,,0.00,VWS V14.01,2013-09-26 06:25:00,
2013-09-26 02:30:00,47.3,45.9,29.97,South,178,0.0,0.0,95,0.00,,,0.00,VWS V14.01,2013-09-26 06:30:00,
2013-09-26 02:35:00,47.1,45.7,29.97,South,178,0.0,0.0,95,0.00,,,0.00,VWS V14.01,2013-09-26 06:35:00,
2013-09-26 02:40:00,46.9,45.5,29.98,South,178,0.0,0.0,95,0.00,,,0.00,VWS V14.01,2013-09-26 06:40:00,
2013-09-26 02:45:00,46.8,45.7,29.98,South,178,0.0,0.0,96,0.00,,,0.00,VWS V14.01,2013-09-26 06:45:00,
2013-09-26 02:50:00,46.8,45.7,29.98,South,178,0.0,0.0,96,0.00,,,0.00,VWS V14.01,2013-09-26 06:50:00,
2013-09-26 02:55:00,46.7,45.6,29.98,South,178,0.0,0.0,96,0.00,,,0.00,VWS V14.01,2013-09-26 06:55:00,
2013-09-26 03:00:00,46.5,45.4,29.98,South,178,0.0,0.0,96,0.00,,,0.00,VWS V14.01,2013-09-26 07:00:00,
2013-09-26 03:05:00,46.4,45.3,29.98,South,178,0.0,0.0,96,0.00,,,0.00,VWS V14.01,2013-09-26 07:05:00,
2013-09-26 03:10:00,46.3,45.2,29.98,South,178,0.0,0.0,96,0.00,,,0.00,VWS V14.01,2013-09-26 07:10:00,
2013-09-26 03:15:00,46.1,45.0,29.98,South,178,0.0,0.0,96,0.00,,,0.00,VWS V14.01,2013-09-26 07:15:00,
2013-09-26 03:20:00,46.0,44.9,29.98,South,178,0.0,0.0,96,0.00,,,0.00,VWS V14.01,2013-09-26 07:20:00,
2013-09-26 03:25:00,46.0,44.9,29.99,South,178,0.0,0.0,96,0.00,,,0.00,VWS V14.01,2013-09-26 07:25:00,
2013-09-26 03:30:00,46.0,44.9,29.99,South,178,0.0,0.0,96,0.00,,,0.00,VWS V14.01,2013-09-26 07:30:00,
2013-09-26 03:35:00,46.0,44.9,29.99,South,178,0.0,0.0,96,0.00,,,0.00,VWS V14.01,2013-09-26 07:35:00,
2013-09-26 03:40:00,45.9,44.8,29.99,South,178,0.0,0.0,96,0.00,,,0.00,VWS V14.01,2013-09-26 07:40:00,
2013-09-26 03:45:00,45.9,44.8,29.99,South,178,0.0,0.0,96,0.00,,,0.00,VWS V14.01,2013-09-26 07:45:00,
2013-09-26 03:50:00,45.8,44.7,29.99,South,178,0.0,0.0,96,0.00,,,0.00,VWS V14.01,2013-09-26 07:50:00,
2013-09-26 03:55:00,45.7,44.6,30.00,South,178,0.0,0.0,96,0.00,,,0.00,VWS V14.01,2013-09-26 07:55:00,
2013-09-26 04:00:00,45.7,44.6,30.00,South,178,0.0,0.0,96,0.00,,,0.00,VWS V14.01,2013-09-26 08:00:00,
2013-09-26 04:05:00,45.7,44.6,30.00,South,178,0.0,0.0,96,0.00,,,0.00,VWS V14.01,2013-09-26 08:05:00,
2013-09-26 04:10:00,45.7,44.9,30.00,South,178,0.0,0.0,97,0.00,,,0.00,VWS V14.01,2013-09-26 08:10:00,
2013-09-26 04:15:00,45.7,44.6,30.00,South,178,0.0,0.0,96,0.00,,,0.00,VWS V14.01,2013-09-26 08:15:00,
2013-09-26 04:20:00,45.6,44.5,29.99,South,178,0.0,0.0,96,0.00,,,0.00,VWS V14.01,2013-09-26 08:20:00,
2013-09-26 04:25:00,45.5,44.4,29.99,South,178,0.0,0.0,96,0.00,,,0.00,VWS V14.01,2013-09-26 08:25:00,
2013-09-26 04:30:00,45.5,44.4,29.99,South,178,0.0,0.0,96,0.00,,,0.00,VWS V14.01,2013-09-26 08:30:00,
2013-09-26 04:35:00,45.4,44.3,30.00,South,178,0.0,0.0,96,0.00,,,0.00,VWS V14.01,2013-09-26 08:35:00,
2013-09-26 04:40:00,45.4,44.3,30.00,South,178,0.0,0.0,96,0.00,,,0.00,VWS V14.01,2013-09-26 08:40:00,
2013-09-26 04:45:00,45.2,44.1,30.00,South,178,0.0,0.0,96,0.00,,,0.00,VWS V14.01,2013-09-26 08:45:00,
2013-09-26 04:50:00,45.0,43.9,30.00,South,178,0.0,0.0,96,0.00,,,0.00,VWS V14.01,2013-09-26 08:50:00,
2013-09-26 04:55:00,44.8,43.7,30.00,South,178,0.0,0.0,96,0.00,,,0.00,VWS V14.01,2013-09-26 08:55:00,
2013-09-26 05:00:00,44.6,43.5,30.00,South,178,0.0,0.0,96,0.00,,,0.00,VWS V14.01,2013-09-26 09:00:00,
2013-09-26 05:05:00,44.6,43.5,30.01,South,178,0.0,0.0,96,0.00,,,0.00,VWS V14.01,2013-09-26 09:05:00,
2013-09-26 05:10:00,44.7,43.9,30.01,South,178,0.0,0.0,97,0.00,,,0.00,VWS V14.01,2013-09-26 09:10:00,
2013-09-26 05:15:00,44.8,44.0,30.01,South,178,0.0,0.0,97,0.00,,,0.00,VWS V14.01,2013-09-26 09:15:00,
2013-09-26 05:20:00,44.8,44.0,30.01,South,178,0.0,0.0,97,0.00,,,0.00,VWS V14.01,2013-09-26 09:20:00,
2013-09-26 05:25:00,44.8,44.0,30.01,South,178,0.0,0.0,97,0.00,,,0.00,VWS V14.01,2013-09-26 09:25:00,
2013-09-26 05:30:00,44.8,44.0,30.01,South,178,0.0,0.0,97,0.00,,,0.00,VWS V14.01,2013-09-26 09:30:00,
2013-09-26 05:35:00,44.9,44.1,30.02,South,177,0.0,0.0,97,0.00,,,0.00,VWS V14.01,2013-09-26 09:35:00,
2013-09-26 05:40:00,44.9,44.1,30.02,South,177,0.0,0.0,97,0.00,,,0.00,VWS V14.01,2013-09-26 09:40:00,
2013-09-26 05:45:00,44.7,43.9,30.02,South,177,0.0,0.0,97,0.00,,,0.00,VWS V14.01,2013-09-26 09:45:00,
2013-09-26 05:50:00,44.6,43.8,30.02,South,177,0.0,0.0,97,0.00,,,0.00,VWS V14.01,2013-09-26 09:50:00,
2013-09-26 05:55:00,44.5,43.7,30.02,South,177,0.0,0.0,97,0.00,,,0.00,VWS V14.01,2013-09-26 09:55:00,
2013-09-26 06:00:00,44.4,43.6,30.02,South,177,0.0,0.0,97,0.00,,,0.00,VWS V14.01,2013-09-26 10:00:00,
2013-09-26 06:05:00,44.3,43.5,30.02,South,177,0.0,0.0,97,0.00,,,0.00,VWS V14.01,2013-09-26 10:05:00,
2013-09-26 06:10:00,44.1,43.3,30.02,South,177,0.0,0.0,97,0.00,,,0.00,VWS V14.01,2013-09-26 10:10:00,
2013-09-26 06:15:00,44.0,43.2,30.03,South,177,0.0,0.0,97,0.00,,,0.00,VWS V14.01,2013-09-26 10:15:00,
2013-09-26 06:20:00,43.9,43.1,30.03,South,177,0.0,0.0,97,0.00,,,0.00,VWS V14.01,2013-09-26 10:20:00,
2013-09-26 06:25:00,43.7,42.9,30.03,South,177,0.0,0.0,97,0.00,,,0.00,VWS V14.01,2013-09-26 10:25:00,
2013-09-26 06:30:00,43.6,42.8,30.03,South,177,0.0,0.0,97,0.00,,,0.00,VWS V14.01,2013-09-26 10:30:00,
2013-09-26 06:35:00,43.4,42.6,30.03,South,177,0.0,0.0,97,0.00,,,0.00,VWS V14.01,2013-09-26 10:35:00,
2013-09-26 06:40:00,43.3,42.5,30.04,South,177,0.0,0.0,97,0.00,,,0.00,VWS V14.01,2013-09-26 10:40:00,
2013-09-26 06:45:00,43.3,42.5,30.04,South,177,0.0,0.0,97,0.00,,,0.00,VWS V14.01,2013-09-26 10:45:00,
2013-09-26 06:50:00,43.2,42.4,30.04,South,177,0.0,0.0,97,0.00,,,0.00,VWS V14.01,2013-09-26 10:50:00,
2013-09-26 06:55:00,43.2,42.4,30.04,South,177,0.0,0.0,97,0.00,,,0.00,VWS V14.01,2013-09-26 10:55:00,
2013-09-26 07:00:00,43.1,42.3,30.04,South,177,0.0,0.0,97,0.00,,,0.00,VWS V14.01,2013-09-26 11:00:00,
2013-09-26 07:05:00,42.9,42.1,30.04,South,177,0.0,0.0,97,0.00,,,0.00,VWS V14.01,2013-09-26 11:05:00,
2013-09-26 07:10:00,42.9,42.1,30.04,South,177,0.0,0.0,97,0.00,,,0.00,VWS V14.01,2013-09-26 11:10:00,
2013-09-26 07:15:00,42.8,42.0,30.04,South,177,0.0,0.0,97,0.00,,,0.00,VWS V14.01,2013-09-26 11:15:00,
2013-09-26 07:20:00,42.8,42.0,30.04,South,177,0.0,0.0,97,0.00,,,0.00,VWS V14.01,2013-09-26 11:20:00,
2013-09-26 07:25:00,42.8,42.0,30.04,South,177,0.0,0.0,97,0.00,,,0.00,VWS V14.01,2013-09-26 11:25:00,
2013-09-26 07:30:00,42.7,41.9,30.04,South,177,0.0,0.0,97,0.00,,,0.00,VWS V14.01,2013-09-26 11:30:00,
2013-09-26 07:35:00,42.6,41.8,30.04,South,177,0.0,0.0,97,0.00,,,0.00,VWS V14.01,2013-09-26 11:35:00,
2013-09-26 07:40:00,42.5,41.7,30.04,South,177,0.0,0.0,97,0.00,,,0.00,VWS V14.01,2013-09-26 11:40:00,
2013-09-26 07:45:00,42.4,41.6,30.05,South,177,0.0,0.0,97,0.00,,,0.00,VWS V14.01,2013-09-26 11:45:00,
2013-09-26 07:50:00,42.4,41.6,30.05,South,177,0.0,0.0,97,0.00,,,0.00,VWS V14.01,2013-09-26 11:50:00,
2013-09-26 07:55:00,42.3,41.5,30.05,South,177,0.0,0.0,97,0.00,,,0.00,VWS V14.01,2013-09-26 11:55:00,
2013-09-26 08:00:00,42.2,41.4,30.05,South,177,0.0,0.0,97,0.00,,,0.00,VWS V14.01,2013-09-26 12:00:00,
2013-09-26 08:05:00,42.2,41.4,30.05,South,177,0.0,0.0,97,0.00,,,0.00,VWS V14.01,2013-09-26 12:05:00,
2013-09-26 08:10:00,42.2,41.4,30.05,South,177,0.0,0.0,97,0.00,,,0.00,VWS V14.01,2013-09-26 12:10:00,
2013-09-26 08:14:00,42.2,41.4,30.05,South,177,0.0,0.0,97,0.00,,,0.00,VWS V14.01,2013-09-26 12:14:00,
2013-09-26 08:19:00,42.2,41.4,30.06,South,177,0.0,0.0,97,0.00,,,0.00,VWS V14.01,2013-09-26 12:19:00,
2013-09-26 08:24:00,42.2,41.4,30.06,South,177,0.0,0.0,97,0.00,,,0.00,VWS V14.01,2013-09-26 12:24:00,
2013-09-26 08:29:00,42.3,41.5,30.06,South,177,0.0,0.0,97,0.00,,,0.00,VWS V14.01,2013-09-26 12:29:00,
2013-09-26 08:34:00,42.5,42.0,30.06,South,177,0.0,0.0,98,0.00,,,0.00,VWS V14.01,2013-09-26 12:34:00,
2013-09-26 08:39:00,42.7,42.2,30.06,South,177,0.0,0.0,98,0.00,,,0.00,VWS V14.01,2013-09-26 12:39:00,
2013-09-26 08:44:00,42.9,42.4,30.06,South,177,0.0,0.0,98,0.00,,,0.00,VWS V14.01,2013-09-26 12:44:00,
2013-09-26 08:49:00,43.3,42.8,30.06,South,177,0.0,0.0,98,0.00,,,0.00,VWS V14.01,2013-09-26 12:49:00,
2013-09-26 08:54:00,43.7,43.2,30.07,South,177,0.0,0.0,98,0.00,,,0.00,VWS V14.01,2013-09-26 12:54:00,
2013-09-26 08:59:00,44.1,43.6,30.07,South,177,0.0,0.0,98,0.00,,,0.00,VWS V14.01,2013-09-26 12:59:00,
2013-09-26 09:04:00,44.7,44.4,30.07,South,177,0.0,0.0,99,0.00,,,0.00,VWS V14.01,2013-09-26 13:04:00,
2013-09-26 09:09:00,45.3,45.0,30.07,South,177,0.0,0.0,99,0.00,,,0.00,VWS V14.01,2013-09-26 13:09:00,
2013-09-26 09:14:00,45.9,45.6,30.07,South,177,0.0,0.0,99,0.00,,,0.00,VWS V14.01,2013-09-26 13:14:00,
2013-09-26 09:19:00,46.3,46.0,30.08,South,177,0.0,0.0,99,0.00,,,0.00,VWS V14.01,2013-09-26 13:19:00,
2013-09-26 09:24:00,46.9,46.6,30.08,South,177,0.0,0.0,99,0.00,,,0.00,VWS V14.01,2013-09-26 13:24:00,
2013-09-26 09:29:00,47.5,47.2,30.08,South,177,0.0,0.0,99,0.00,,,0.00,VWS V14.01,2013-09-26 13:29:00,
2013-09-26 09:34:00,48.1,47.8,30.08,South,177,0.0,0.0,99,0.00,,,0.00,VWS V14.01,2013-09-26 13:34:00,
2013-09-26 09:39:00,48.8,48.5,30.08,South,177,0.0,0.0,99,0.00,,,0.00,VWS V14.01,2013-09-26 13:39:00,
2013-09-26 09:44:00,49.2,48.9,30.08,South,177,0.0,0.0,99,0.00,,,0.00,VWS V14.01,2013-09-26 13:44:00,
2013-09-26 09:49:00,49.7,49.4,30.08,South,177,0.0,0.0,99,0.00,,,0.00,VWS V14.01,2013-09-26 13:49:00,
2013-09-26 09:54:00,50.5,50.2,30.08,South,177,0.0,0.0,99,0.00,,,0.00,VWS V14.01,2013-09-26 13:54:00,
2013-09-26 09:59:00,51.2,50.9,30.08,South,177,0.0,0.0,99,0.00,,,0.00,VWS V14.01,2013-09-26 13:59:00,
2013-09-26 10:04:00,51.7,51.4,30.08,South,177,0.0,0.0,99,0.00,,,0.00,VWS V14.01,2013-09-26 14:04:00,
2013-09-26 10:09:00,52.5,52.5,30.08,South,177,0.0,0.0,100,0.00,,,0.00,VWS V14.01,2013-09-26 14:09:00,
2013-09-26 10:14:00,54.9,54.9,30.08,South,177,0.0,0.0,100,0.00,,,0.00,VWS V14.01,2013-09-26 14:14:00,
2013-09-26 10:19:00,56.1,56.1,30.09,South,177,0.0,0.0,100,0.00,,,0.00,VWS V14.01,2013-09-26 14:19:00,
2013-09-26 10:24:00,56.7,56.4,30.09,South,177,0.0,0.0,99,0.00,,,0.00,VWS V14.01,2013-09-26 14:24:00,
2013-09-26 10:29:00,57.5,57.2,30.09,SSW,196,0.0,0.0,99,0.00,,,0.00,VWS V14.01,2013-09-26 14:29:00,
2013-09-26 10:34:00,58.1,57.5,30.09,SSW,196,0.0,0.0,98,0.00,,,0.00,VWS V14.01,2013-09-26 14:34:00,
2013-09-26 10:39:00,59.0,57.9,30.09,NE,42,0.0,1.0,96,0.00,,,0.00,VWS V14.01,2013-09-26 14:39:00,
2013-09-26 10:44:00,59.8,58.1,30.09,NE,42,0.0,1.0,94,0.00,,,0.00,VWS V14.01,2013-09-26 14:44:00,
2013-09-26 10:49:00,61.0,58.0,30.08,NE,42,0.0,1.0,90,0.00,,,0.00,VWS V14.01,2013-09-26 14:49:00,
2013-09-26 10:54:00,62.3,58.7,30.08,NE,42,0.0,0.0,88,0.00,,,0.00,VWS V14.01,2013-09-26 14:54:00,
2013-09-26 10:59:00,63.7,58.1,30.08,ESE,108,0.0,0.0,82,0.00,,,0.00,VWS V14.01,2013-09-26 14:59:00,
2013-09-26 11:04:00,64.3,57.0,30.08,SSW,208,2.0,4.0,77,0.00,,,0.00,VWS V14.01,2013-09-26 15:04:00,
2013-09-26 11:09:00,65.1,57.0,30.08,SSW,205,0.0,4.0,75,0.00,,,0.00,VWS V14.01,2013-09-26 15:09:00,
2013-09-26 11:14:00,65.6,55.6,30.08,SW,221,0.0,4.0,70,0.00,,,0.00,VWS V14.01,2013-09-26 15:14:00,
2013-09-26 11:19:00,66.5,58.0,30.08,SW,221,0.0,3.0,74,0.00,,,0.00,VWS V14.01,2013-09-26 15:19:00,
2013-09-26 11:24:00,67.0,55.3,30.08,SW,221,0.0,1.0,66,0.00,,,0.00,VWS V14.01,2013-09-26 15:24:00,
2013-09-26 11:29:00,67.4,55.2,30.08,SSW,196,0.0,2.0,65,0.00,,,0.00,VWS V14.01,2013-09-26 15:29:00,
2013-09-26 11:34:00,67.8,55.6,30.08,NNW,339,0.0,2.0,65,0.00,,,0.00,VWS V14.01,2013-09-26 15:34:00,
2013-09-26 11:39:00,68.3,55.7,30.07,North,355,0.0,4.0,64,0.00,,,0.00,VWS V14.01,2013-09-26 15:39:00,
2013-09-26 11:44:00,68.2,54.2,30.07,SSW,212,0.0,4.0,61,0.00,,,0.00,VWS V14.01,2013-09-26 15:44:00,
2013-09-26 11:49:00,68.5,55.0,30.07,South,186,0.0,4.0,62,0.00,,,0.00,VWS V14.01,2013-09-26 15:49:00,
2013-09-26 11:54:00,69.1,53.2,30.07,ENE,73,0.0,4.0,57,0.00,,,0.00,VWS V14.01,2013-09-26 15:54:00,
2013-09-26 11:59:00,69.5,54.6,30.07,SW,230,0.0,4.0,59,0.00,,,0.00,VWS V14.01,2013-09-26 15:59:00,
2013-09-26 12:04:00,70.2,54.8,30.07,WNW,296,0.0,4.0,58,0.00,,,0.00,VWS V14.01,2013-09-26 16:04:00,
2013-09-26 12:09:00,71.1,54.1,30.07,West,269,0.0,2.0,55,0.00,,,0.00,VWS V14.01,2013-09-26 16:09:00,
2013-09-26 12:14:00,71.1,54.6,30.07,SW,217,2.0,5.0,56,0.00,,,0.00,VWS V14.01,2013-09-26 16:14:00,
2013-09-26 12:19:00,70.9,53.4,30.06,WSW,257,0.0,5.0,54,0.00,,,0.00,VWS V14.01,2013-09-26 16:19:00,
2013-09-26 12:24:00,71.1,55.1,30.06,WNW,288,0.0,5.0,57,0.00,,,0.00,VWS V14.01,2013-09-26 16:24:00,
2013-09-26 12:29:00,71.5,53.5,30.06,NW,319,1.0,4.0,53,0.00,,,0.00,VWS V14.01,2013-09-26 16:29:00,
2013-09-26 12:34:00,71.6,53.1,30.06,SW,219,1.0,7.0,52,0.00,,,0.00,VWS V14.01,2013-09-26 16:34:00,
2013-09-26 12:39:00,71.5,52.4,30.06,NNE,25,0.0,7.0,51,0.00,,,0.00,VWS V14.01,2013-09-26 16:39:00,
2013-09-26 12:44:00,71.9,53.3,30.06,SW,217,0.0,7.0,52,0.00,,,0.00,VWS V14.01,2013-09-26 16:44:00,
2013-09-26 12:49:00,71.9,52.8,30.06,South,169,0.0,5.0,51,0.00,,,0.00,VWS V14.01,2013-09-26 16:49:00,
2013-09-26 12:54:00,72.4,54.3,30.06,SE,144,1.0,4.0,53,0.00,,,0.00,VWS V14.01,2013-09-26 16:54:00,
2013-09-26 12:59:00,72.1,51.9,30.06,SSW,196,4.0,5.0,49,0.00,,,0.00,VWS V14.01,2013-09-26 16:59:00,
2013-09-26 13:04:00,72.8,53.6,30.06,SW,216,1.0,5.0,51,0.00,,,0.00,VWS V14.01,2013-09-26 17:04:00,
2013-09-26 13:09:00,73.3,51.9,30.06,WSW,240,0.0,5.0,47,0.00,,,0.00,VWS V14.01,2013-09-26 17:09:00,
2013-09-26 13:14:00,73.9,52.4,30.05,SSE,159,0.0,3.0,47,0.00,,,0.00,VWS V14.01,2013-09-26 17:14:00,
2013-09-26 13:19:00,74.4,51.1,30.05,SSE,152,0.0,3.0,44,0.00,,,0.00,VWS V14.01,2013-09-26 17:19:00,
2013-09-26 13:24:00,74.1,52.0,30.05,SSE,163,0.0,3.0,46,0.00,,,0.00,VWS V14.01,2013-09-26 17:24:00,
2013-09-26 13:29:00,74.3,52.2,30.05,NNE,25,2.0,3.0,46,0.00,,,0.00,VWS V14.01,2013-09-26 17:29:00,
2013-09-26 13:34:00,74.1,52.0,30.05,WNW,289,1.0,3.0,46,0.00,,,0.00,VWS V14.01,2013-09-26 17:34:00,
2013-09-26 13:39:00,74.6,50.7,30.05,South,180,3.0,5.0,43,0.00,,,0.00,VWS V14.01,2013-09-26 17:39:00,
2013-09-26 13:44:00,74.7,52.0,30.05,SSE,168,0.0,5.0,45,0.00,,,0.00,VWS V14.01,2013-09-26 17:44:00,
2013-09-26 13:49:00,75.6,52.8,30.05,West,262,1.0,5.0,45,0.00,,,0.00,VWS V14.01,2013-09-26 17:49:00,
2013-09-26 13:54:00,75.4,50.7,30.05,NNE,26,0.0,5.0,42,0.00,,,0.00,VWS V14.01,2013-09-26 17:54:00,
2013-09-26 13:59:00,75.3,51.9,30.05,NE,51,0.0,3.0,44,0.00,,,0.00,VWS V14.01,2013-09-26 17:59:00,
2013-09-26 14:04:00,75.3,51.9,30.05,NE,51,0.0,3.0,44,0.00,,,0.00,VWS V14.01,2013-09-26 18:04:00,
2013-09-26 14:09:00,75.3,51.9,30.05,NE,51,0.0,3.0,44,0.00,,,0.00,VWS V14.01,2013-09-26 18:09:00,
2013-09-26 14:14:00,75.3,51.9,30.05,NE,51,0.0,3.0,44,0.00,,,0.00,VWS V14.01,2013-09-26 18:14:00,
2013-09-26 14:19:00,75.3,51.9,30.05,NE,51,0.0,3.0,44,0.00,,,0.00,VWS V14.01,2013-09-26 18:19:00,
2013-09-26 15:12:00,76.8,50.0,30.04,NE,45,1.0,3.0,39,0.00,,,0.00,VWS V14.01,2013-09-26 19:12:00,
2013-09-26 15:17:00,77.3,51.8,30.03,NE,38,0.0,3.0,41,0.00,,,0.00,VWS V14.01,2013-09-26 19:17:00,
2013-09-26 15:22:00,77.8,50.9,30.03,North,350,0.0,3.0,39,0.00,,,0.00,VWS V14.01,2013-09-26 19:22:00,
2013-09-26 15:27:00,78.2,51.9,30.03,North,360,0.0,3.0,40,0.00,,,0.00,VWS V14.01,2013-09-26 19:27:00,
2013-09-26 15:32:00,78.8,53.1,30.03,NNE,23,0.0,3.0,41,0.00,,,0.00,VWS V14.01,2013-09-26 19:32:00,
2013-09-26 15:37:00,79.1,51.3,30.03,NNE,28,0.0,1.0,38,0.00,,,0.00,VWS V14.01,2013-09-26 19:37:00,
2013-09-26 15:42:00,79.2,53.5,30.03,NNE,27,0.0,1.0,41,0.00,,,0.00,VWS V14.01,2013-09-26 19:42:00,
2013-09-26 15:47:00,79.1,52.0,30.03,NNE,26,0.0,1.0,39,0.00,,,0.00,VWS V14.01,2013-09-26 19:47:00,
2013-09-26 15:52:00,78.7,53.0,30.03,East,98,0.0,4.0,41,0.00,,,0.00,VWS V14.01,2013-09-26 19:52:00,
2013-09-26 15:57:00,78.5,49.3,30.03,SW,229,2.0,4.0,36,0.00,,,0.00,VWS V14.01,2013-09-26 19:57:00,
2013-09-26 16:02:00,78.6,52.3,30.03,WSW,246,0.0,4.0,40,0.00,,,0.00,VWS V14.01,2013-09-26 20:02:00,
2013-09-26 16:07:00,78.9,52.5,30.03,North,11,0.0,4.0,40,0.00,,,0.00,VWS V14.01,2013-09-26 20:07:00,
2013-09-26 16:12:00,79.1,49.1,30.03,NNE,23,0.0,4.0,35,0.00,,,0.00,VWS V14.01,2013-09-26 20:12:00,
2013-09-26 16:17:00,79.4,53.0,30.03,NNE,25,0.0,3.0,40,0.00,,,0.00,VWS V14.01,2013-09-26 20:17:00,
2013-09-26 16:22:00,78.8,49.6,30.03,SE,136,1.0,2.0,36,0.00,,,0.00,VWS V14.01,2013-09-26 20:22:00,
2013-09-26 16:27:00,78.9,51.2,30.03,North,355,0.0,3.0,38,0.00,,,0.00,VWS V14.01,2013-09-26 20:27:00,
2013-09-26 16:32:00,78.9,52.5,30.02,NW,308,0.0,5.0,40,0.00,,,0.00,VWS V14.01,2013-09-26 20:32:00,
2013-09-26 16:37:00,78.7,50.3,30.03,NNW,337,0.0,5.0,37,0.00,,,0.00,VWS V14.01,2013-09-26 20:37:00,
2013-09-26 16:42:00,78.3,49.9,30.03,North,5,0.0,5.0,37,0.00,,,0.00,VWS V14.01,2013-09-26 20:42:00,
2013-09-26 16:47:00,78.5,50.8,30.03,South,173,0.0,2.0,38,0.00,,,0.00,VWS V14.01,2013-09-26 20:47:00,
2013-09-26 16:52:00,78.5,52.2,30.03,WNW,293,0.0,2.0,40,0.00,,,0.00,VWS V14.01,2013-09-26 20:52:00,
2013-09-26 16:57:00,78.4,50.7,30.03,ENE,59,0.0,2.0,38,0.00,,,0.00,VWS V14.01,2013-09-26 20:57:00,
2013-09-26 17:02:00,78.3,50.6,30.03,ENE,59,0.0,2.0,38,0.00,,,0.00,VWS V14.01,2013-09-26 21:02:00,
2013-09-26 17:07:00,78.1,50.5,30.03,ENE,59,0.0,1.0,38,0.00,,,0.00,VWS V14.01,2013-09-26 21:07:00,
2013-09-26 17:12:00,77.9,51.0,30.03,South,188,0.0,2.0,39,0.00,,,0.00,VWS V14.01,2013-09-26 21:12:00,
2013-09-26 17:17:00,77.7,50.1,30.03,North,355,0.0,2.0,38,0.00,,,0.00,VWS V14.01,2013-09-26 21:17:00,
2013-09-26 17:22:00,77.3,49.0,30.03,SW,232,4.0,4.0,37,0.00,,,0.00,VWS V14.01,2013-09-26 21:22:00,
2013-09-26 17:27:00,77.2,50.3,30.03,SSW,211,2.0,4.0,39,0.00,,,0.00,VWS V14.01,2013-09-26 21:27:00,
2013-09-26 17:32:00,77.1,49.6,30.03,NNW,346,0.0,4.0,38,0.00,,,0.00,VWS V14.01,2013-09-26 21:32:00,
2013-09-26 17:37:00,76.9,52.1,30.03,North,355,0.0,2.0,42,0.00,,,0.00,VWS V14.01,2013-09-26 21:37:00,
2013-09-26 17:42:00,76.6,52.5,30.03,North,355,0.0,1.0,43,0.00,,,0.00,VWS V14.01,2013-09-26 21:42:00,
2013-09-26 17:47:00,76.5,49.7,30.03,NNW,333,1.0,1.0,39,0.00,,,0.00,VWS V14.01,2013-09-26 21:47:00,
2013-09-26 17:52:00,76.5,50.4,30.03,NNW,333,0.0,1.0,40,0.00,,,0.00,VWS V14.01,2013-09-26 21:52:00,
2013-09-26 17:57:00,76.6,50.5,30.03,SSE,167,0.0,2.0,40,0.00,,,0.00,VWS V14.01,2013-09-26 21:57:00,
2013-09-26 18:02:00,76.1,51.4,30.03,SSE,167,0.0,2.0,42,0.00,,,0.00,VWS V14.01,2013-09-26 22:02:00,
2013-09-26 18:06:00,75.8,53.0,30.03,SSE,167,0.0,2.0,45,0.00,,,0.00,VWS V14.01,2013-09-26 22:06:00,
2013-09-26 18:11:00,75.4,52.6,30.03,SSE,167,0.0,0.0,45,0.00,,,0.00,VWS V14.01,2013-09-26 22:11:00,
2013-09-26 18:16:00,75.1,52.3,30.03,SSE,167,0.0,0.0,45,0.00,,,0.00,VWS V14.01,2013-09-26 22:16:00,
2013-09-26 18:21:00,74.7,52.6,30.03,SSE,167,0.0,0.0,46,0.00,,,0.00,VWS V14.01,2013-09-26 22:21:00,
2013-09-26 18:26:00,74.4,53.5,30.03,SSE,167,0.0,0.0,48,0.00,,,0.00,VWS V14.01,2013-09-26 22:26:00,
2013-09-26 18:31:00,74.0,52.5,30.03,SSE,167,0.0,0.0,47,0.00,,,0.00,VWS V14.01,2013-09-26 22:31:00,
2013-09-26 18:36:00,73.6,52.7,30.03,SSE,167,0.0,0.0,48,0.00,,,0.00,VWS V14.01,2013-09-26 22:36:00,
2013-09-26 18:41:00,73.2,52.9,30.03,SSE,167,0.0,0.0,49,0.00,,,0.00,VWS V14.01,2013-09-26 22:41:00,
2013-09-26 18:46:00,72.7,53.5,30.03,SSE,167,0.0,0.0,51,0.00,,,0.00,VWS V14.01,2013-09-26 22:46:00,
2013-09-26 18:51:00,72.1,53.5,30.03,SSE,167,0.0,0.0,52,0.00,,,0.00,VWS V14.01,2013-09-26 22:51:00,
2013-09-26 18:56:00,71.5,53.5,30.03,SSE,167,0.0,0.0,53,0.00,,,0.00,VWS V14.01,2013-09-26 22:56:00,
2013-09-26 19:01:00,71.1,54.1,30.03,SSE,167,0.0,0.0,55,0.00,,,0.00,VWS V14.01,2013-09-26 23:01:00,
2013-09-26 19:06:00,70.5,53.6,30.03,SSE,167,0.0,0.0,55,0.00,,,0.00,VWS V14.01,2013-09-26 23:06:00,
2013-09-26 19:11:00,70.1,54.2,30.04,SSE,167,0.0,0.0,57,0.00,,,0.00,VWS V14.01,2013-09-26 23:11:00,
2013-09-26 19:16:00,69.5,54.1,30.04,SSE,167,0.0,0.0,58,0.00,,,0.00,VWS V14.01,2013-09-26 23:16:00,
2013-09-26 19:21:00,69.0,55.5,30.04,SSE,167,0.0,0.0,62,0.00,,,0.00,VWS V14.01,2013-09-26 23:21:00,
2013-09-26 19:26:00,68.4,54.9,30.04,SSE,167,0.0,0.0,62,0.00,,,0.00,VWS V14.01,2013-09-26 23:26:00,
2013-09-26 19:31:00,67.7,55.1,30.04,SSE,167,0.0,0.0,64,0.00,,,0.00,VWS V14.01,2013-09-26 23:31:00,
2013-09-26 19:36:00,67.1,55.0,30.04,SSE,167,0.0,0.0,65,0.00,,,0.00,VWS V14.01,2013-09-26 23:36:00,
2013-09-26 19:41:00,66.5,55.2,30.04,SSE,167,0.0,0.0,67,0.00,,,0.00,VWS V14.01,2013-09-26 23:41:00,
2013-09-26 19:46:00,65.8,55.0,30.04,SSE,167,0.0,0.0,68,0.00,,,0.00,VWS V14.01,2013-09-26 23:46:00,
2013-09-26 19:51:00,65.3,54.9,30.04,SSE,167,0.0,0.0,69,0.00,,,0.00,VWS V14.01,2013-09-26 23:51:00,
2013-09-26 19:56:00,64.7,54.7,30.04,SSE,167,0.0,0.0,70,0.00,,,0.00,VWS V14.01,2013-09-26 23:56:00,
2013-09-26 20:01:00,64.1,54.1,30.04,SSE,167,0.0,0.0,70,0.00,,,0.00,VWS V14.01,2013-09-27 00:01:00,
2013-09-26 20:06:00,63.6,54.0,30.04,SSE,167,0.0,0.0,71,0.00,,,0.00,VWS V14.01,2013-09-27 00:06:00,
2013-09-26 20:11:00,63.0,54.2,30.04,SSE,167,0.0,0.0,73,0.00,,,0.00,VWS V14.01,2013-09-27 00:11:00,
2013-09-26 20:16:00,62.3,53.9,30.04,SSE,167,0.0,0.0,74,0.00,,,0.00,VWS V14.01,2013-09-27 00:16:00,
2013-09-26 20:21:00,61.7,54.1,30.04,SSE,167,0.0,0.0,76,0.00,,,0.00,VWS V14.01,2013-09-27 00:21:00,
2013-09-26 20:26:00,61.1,53.8,30.05,SSE,167,0.0,0.0,77,0.00,,,0.00,VWS V14.01,2013-09-27 00:26:00,
2013-09-26 20:31:00,60.6,53.7,30.05,SSE,167,0.0,0.0,78,0.00,,,0.00,VWS V14.01,2013-09-27 00:31:00,
2013-09-26 20:36:00,60.1,53.6,30.05,SSE,167,0.0,0.0,79,0.00,,,0.00,VWS V14.01,2013-09-27 00:36:00,
2013-09-26 20:41:00,59.7,53.5,30.05,SSE,167,0.0,0.0,80,0.00,,,0.00,VWS V14.01,2013-09-27 00:41:00,
2013-09-26 20:46:00,59.2,53.7,30.05,SSE,167,0.0,0.0,82,0.00,,,0.00,VWS V14.01,2013-09-27 00:46:00,
2013-09-26 20:51:00,58.7,53.2,30.05,SSE,167,0.0,0.0,82,0.00,,,0.00,VWS V14.01,2013-09-27 00:51:00,
2013-09-26 20:56:00,58.5,53.4,30.06,SSE,167,0.0,0.0,83,0.00,,,0.00,VWS V14.01,2013-09-27 00:56:00,
2013-09-26 21:01:00,58.2,53.4,30.06,SSE,167,0.0,0.0,84,0.00,,,0.00,VWS V14.01,2013-09-27 01:01:00,
2013-09-26 21:06:00,57.8,53.3,30.06,SSE,167,0.0,0.0,85,0.00,,,0.00,VWS V14.01,2013-09-27 01:06:00,
2013-09-26 21:11:00,57.6,53.5,30.06,SSE,167,0.0,0.0,86,0.00,,,0.00,VWS V14.01,2013-09-27 01:11:00,
2013-09-26 21:16:00,57.2,53.4,30.06,SSE,167,0.0,0.0,87,0.00,,,0.00,VWS V14.01,2013-09-27 01:16:00,
2013-09-26 21:21:00,57.0,53.2,30.06,SSE,167,0.0,0.0,87,0.00,,,0.00,VWS V14.01,2013-09-27 01:21:00,
2013-09-26 21:26:00,56.7,53.2,30.06,SSE,167,0.0,0.0,88,0.00,,,0.00,VWS V14.01,2013-09-27 01:26:00,
2013-09-26 21:31:00,56.4,52.9,30.06,SSE,167,0.0,0.0,88,0.00,,,0.00,VWS V14.01,2013-09-27 01:31:00,
2013-09-26 21:36:00,56.2,52.7,30.07,SSE,167,0.0,0.0,88,0.00,,,0.00,VWS V14.01,2013-09-27 01:36:00,
2013-09-26 21:41:00,55.9,52.7,30.07,SSE,167,0.0,0.0,89,0.00,,,0.00,VWS V14.01,2013-09-27 01:41:00,
2013-09-26 21:46:00,55.6,52.4,30.07,SSE,167,0.0,0.0,89,0.00,,,0.00,VWS V14.01,2013-09-27 01:46:00,
2013-09-26 21:51:00,55.4,52.2,30.07,SSE,167,0.0,0.0,89,0.00,,,0.00,VWS V14.01,2013-09-27 01:51:00,
2013-09-26 21:56:00,55.1,51.9,30.07,SSE,167,0.0,0.0,89,0.00,,,0.00,VWS V14.01,2013-09-27 01:56:00,
2013-09-26 22:01:00,54.9,52.0,30.07,SSE,167,0.0,0.0,90,0.00,,,0.00,VWS V14.01,2013-09-27 02:01:00,
2013-09-26 22:06:00,54.8,51.9,30.07,SSE,167,0.0,0.0,90,0.00,,,0.00,VWS V14.01,2013-09-27 02:06:00,
2013-09-26 22:11:00,54.6,51.7,30.07,SSE,167,0.0,0.0,90,0.00,,,0.00,VWS V14.01,2013-09-27 02:11:00,
2013-09-26 22:16:00,54.4,51.5,30.07,SSE,167,0.0,0.0,90,0.00,,,0.00,VWS V14.01,2013-09-27 02:16:00,
2013-09-26 22:21:00,54.2,51.6,30.07,SSE,167,0.0,0.0,91,0.00,,,0.00,VWS V14.01,2013-09-27 02:21:00,
2013-09-26 22:26:00,54.0,51.4,30.07,SSE,167,0.0,0.0,91,0.00,,,0.00,VWS V14.01,2013-09-27 02:26:00,
2013-09-26 22:31:00,53.8,51.2,30.07,SSE,167,0.0,0.0,91,0.00,,,0.00,VWS V14.01,2013-09-27 02:31:00,
2013-09-26 22:36:00,53.6,51.0,30.07,SSE,167,0.0,0.0,91,0.00,,,0.00,VWS V14.01,2013-09-27 02:36:00,
2013-09-26 22:41:00,53.4,51.1,30.07,SSE,167,0.0,0.0,92,0.00,,,0.00,VWS V14.01,2013-09-27 02:41:00,
2013-09-26 22:46:00,53.1,50.8,30.07,SSE,167,0.0,0.0,92,0.00,,,0.00,VWS V14.01,2013-09-27 02:46:00,
2013-09-26 22:51:00,52.9,50.6,30.07,SSE,167,0.0,0.0,92,0.00,,,0.00,VWS V14.01,2013-09-27 02:51:00,
2013-09-26 22:56:00,52.7,50.5,30.08,SSE,167,0.0,0.0,92,0.00,,,0.00,VWS V14.01,2013-09-27 02:56:00,
2013-09-26 23:01:00,52.5,50.2,30.08,SSE,167,0.0,0.0,92,0.00,,,0.00,VWS V14.01,2013-09-27 03:01:00,
2013-09-26 23:06:00,52.3,50.0,30.08,SSE,167,0.0,0.0,92,0.00,,,0.00,VWS V14.01,2013-09-27 03:06:00,
2013-09-26 23:11:00,52.0,50.0,30.08,SSE,167,0.0,0.0,93,0.00,,,0.00,VWS V14.01,2013-09-27 03:11:00,
2013-09-26 23:16:00,51.9,49.9,30.08,SSE,167,0.0,0.0,93,0.00,,,0.00,VWS V14.01,2013-09-27 03:16:00,
2013-09-26 23:21:00,51.7,49.8,30.08,SSE,167,0.0,0.0,93,0.00,,,0.00,VWS V14.01,2013-09-27 03:21:00,
2013-09-26 23:26:00,51.6,49.7,30.08,SSE,167,0.0,0.0,93,0.00,,,0.00,VWS V14.01,2013-09-27 03:26:00,
2013-09-26 23:31:00,51.5,49.5,30.08,SSE,167,0.0,0.0,93,0.00,,,0.00,VWS V14.01,2013-09-27 03:31:00,
2013-09-26 23:36:00,51.4,49.5,30.08,SSE,167,0.0,0.0,93,0.00,,,0.00,VWS V14.01,2013-09-27 03:36:00,
2013-09-26 23:41:00,51.3,49.3,30.08,SSE,167,0.0,0.0,93,0.00,,,0.00,VWS V14.01,2013-09-27 03:41:00,
2013-09-26 23:46:00,51.1,49.2,30.08,SSE,167,0.0,0.0,93,0.00,,,0.00,VWS V14.01,2013-09-27 03:46:00,
2013-09-26 23:51:00,51.0,49.3,30.08,SSE,167,0.0,0.0,94,0.00,,,0.00,VWS V14.01,2013-09-27 03:51:00,
2013-09-26 23:56:00,50.8,49.1,30.09,SSE,167,0.0,0.0,94,0.00,,,0.00,VWS V14.01,2013-09-27 03:56:00,